Location: ??????
(55.2000°N, 38.3000°E)
Time: 16:25:03
(UTC+00:00)

USA 238 DEB - Pass Details

Date: 15 November 2025
Orbit: 886 x 1325 km, 63.4° (Epoch: 24 November)

Event Time Altitude Azimuth Distance (km) Brightness Sun altitude
Exits shadow 03:50:54 10° 306° (NW) 2,909 5.4 -9.7°
Maximum altitude 03:57:48 60° 26° (NNE) 1,320 4.2 -8.8°
Drops below altitude 10° 04:05:29 10° 106° (ESE) 3,224 8.0 -7.7°
Sets 04:08:27 0° 110° (ESE) 4,237 9.5 -7.3°
